GW7176 Weather Reports


Display with metric or nautical units.
time (UTC)temp
F
wind
direction
speed
MPH
gust
MPH
rain 1hr
in
rain 24hr
in
rain mn
in
humidity
%
barometer
mb
20260510081554 71 0 0.0 0.0 0.00 0.00 0.00 93 1011.7
20260510080048 72 0 0.0 0.0 0.00 0.00 0.00 93 1011.7
20260510074550 72 0 0.0 0.0 0.00 0.00 0.00 92 1011.6
20260510073058 72 0 0.0 3.0 0.00 0.00 0.00 91 1011.5
20260510071549 72 0 0.0 4.0 0.00 0.00 0.00 91 1011.5
20260510070053 72 0 0.0 0.0 0.00 0.00 0.00 90 1011.6
20260510064549 72 0 0.0 4.0 0.00 0.00 0.00 88 1011.7
20260510063050 73 0 0.0 6.0 0.00 0.00 0.00 87 1011.6
20260510061547 73 0 0.0 7.0 0.00 0.00 0.00 86 1011.4
20260510060050 73 271 2.0 7.0 0.00 0.00 0.00 85 1011.3
20260510054551 73 275 0.0 4.0 0.00 0.00 0.00 84 1011.4
20260510053052 73 0 0.0 0.0 0.00 0.00 0.00 83 1011.7
20260510051601 74 0 0.0 0.0 0.00 0.00 0.00 83 1011.7
20260510050054 74 0 0.0 0.0 0.00 0.00 0.00 82 1011.6
20260510044601 74 0 0.0 0.0 0.00 0.00 0.00 82 1011.4
20260510043048 75 0 0.0 0.0 0.00 0.00 0.00 81 1011.4
20260510041551 75 0 0.0 0.0 0.00 0.00 0.00 79 1011.4
20260510040053 76 0 0.0 0.0 0.00 0.00 0.00 78 1011.1
20260510034829 77 0 0.0 0.0 0.00 0.00 0.00 77 1010.9
20260510033059 78 0 0.0 4.0 0.00 0.00 0.00 76 1010.8
20260510031551 78 277 1.0 4.0 0.00 0.00 0.00 76 1010.3
20260510030101 78 263 0.0 3.0 0.00 0.00 0.00 75 1010.1
20260510024550 79 0 0.0 6.0 0.00 0.00 0.00 74 1009.9
20260510023052 79 275 2.0 6.0 0.00 0.00 0.00 73 1009.6
20260510021546 80 268 2.0 7.0 0.00 0.00 0.00 72 1009.7
20260510020050 81 277 5.0 9.0 0.00 0.00 0.00 70 1009.4
20260510014551 82 266 2.0 8.0 0.00 0.00 0.00 69 1009.6
20260510013050 82 0 1.0 8.0 0.00 0.00 0.00 67 1009.6
20260510011552 83 192 3.0 12.0 0.00 0.00 0.00 66 1009.5
20260510010047 84 278 5.0 11.0 0.00 0.00 0.00 66 1009.6
20260510004550 85 240 3.0 10.0 0.00 0.00 0.00 65 1009.3
20260510003050 85 273 3.0 11.0 0.00 0.00 0.00 65 1008.9
20260510001550 87 280 4.0 12.0 0.00 0.00 0.00 63 1008.5
20260510000051 89 268 6.0 17.0 0.00 0.00 0.00 57 1008.5
20260509234554 91 0 0.0 4.0 0.00 0.00 0.00 53 1008.3
20260509233051 90 0 0.0 0.0 0.00 0.00 0.00 55 1008.4
20260509231549 90 0 0.0 0.0 0.00 0.00 0.00 58 1008.5
20260509230049 90 0 0.0 0.0 0.00 0.00 0.00 56 1008.6
20260509224555 91 0 0.0 0.0 0.00 0.00 0.00 54 1008.6
20260509223051 91 0 0.0 0.0 0.00 0.00 0.00 53 1008.5
20260509221550 91 0 0.0 3.0 0.00 0.00 0.00 54 1008.6
20260509220049 91 205 0.0 3.0 0.00 0.00 0.00 54 1008.4
20260509214550 91 0 0.0 6.0 0.00 0.00 0.00 54 1008.5
20260509213118 91 0 2.0 4.0 0.00 0.00 0.00 54 1008.6
20260509211554 90 0 0.0 3.0 0.00 0.00 0.00 56 1008.6
20260509204550 89 136 1.0 5.0 0.00 0.00 0.00 58 1008.8
20260509203048 89 0 0.0 3.0 0.00 0.00 0.00 53 1008.9
20260509201546 90 0 1.0 5.0 0.00 0.00 0.00 53 1009.0
20260509200100 90 0 0.0 6.0 0.00 0.00 0.00 58 1009.0
20260509194552 89 51 1.0 4.0 0.00 0.00 0.00 59 1009.3
20260509193052 89 0 0.0 4.0 0.00 0.00 0.00 63 1009.6
20260509191549 89 68 0.0 7.0 0.00 0.00 0.00 63 1009.8
20260509190049 88 0 0.0 5.0 0.00 0.00 0.00 60 1009.8
20260509184555 88 67 0.0 5.0 0.00 0.00 0.00 63 1010.0
20260509183058 87 74 0.0 4.0 0.00 0.00 0.00 67 1010.1
20260509181558 86 49 2.0 7.0 0.00 0.00 0.00 68 1010.3
20260509180049 86 0 0.0 9.0 0.00 0.00 0.00 65 1010.4
20260509174550 86 86 1.0 8.0 0.00 0.00 0.00 70 1010.7
20260509173050 85 0 0.0 5.0 0.00 0.00 0.00 67 1010.8
20260509171553 84 0 0.0 7.0 0.00 0.00 0.00 70 1010.8
20260509170052 84 99 3.0 9.0 0.00 0.00 0.00 72 1010.8
20260509164551 83 54 0.0 7.0 0.00 0.00 0.00 71 1010.6
20260509163053 83 69 1.0 5.0 0.00 0.00 0.00 69 1010.7
20260509161548 82 0 0.0 5.0 0.00 0.00 0.00 69 1010.3
20260509160049 82 37 0.0 5.0 0.00 0.00 0.00 74 1009.9
20260509154553 82 270 1.0 6.0 0.00 0.00 0.00 72 1010.1
20260509153102 81 280 1.0 8.0 0.00 0.00 0.00 77 1010.1
20260509151554 79 271 1.0 7.0 0.00 0.00 0.00 81 1010.4
20260509150053 78 276 0.0 0.0 0.00 0.00 0.00 88 1010.8
20260509144557 76 0 0.0 1.0 0.00 0.00 0.00 92 1011.5
20260509143055 75 0 0.0 0.0 0.00 0.00 0.00 94 1011.6
20260509141551 74 0 0.0 0.0 0.00 0.00 0.00 95 1011.6
20260509140059 74 0 0.0 0.0 0.00 0.00 0.00 95 1011.4
20260509134551 74 0 0.0 0.0 0.00 0.00 0.00 96 1010.9
20260509133049 73 0 0.0 0.0 0.00 0.00 0.00 96 1011.2
20260509131550 73 0 0.0 0.0 0.00 0.00 0.00 96 1011.4
20260509130053 73 0 0.0 0.0 0.00 0.00 0.00 95 1011.3
20260509124548 73 0 0.0 2.0 0.00 0.00 0.00 95 1011.2
20260509123057 73 0 0.0 5.0 0.00 0.00 0.00 95 1011.0
20260509121601 73 0 0.0 10.0 0.00 0.00 0.00 95 1009.8
20260509120101 74 302 2.0 11.0 0.00 0.00 0.00 95 1009.6
20260509114547 74 194 8.0 16.0 0.00 0.00 0.00 96 1008.7
20260509113057 74 220 6.0 14.0 0.00 0.00 0.00 96 1008.3
20260509111555 74 211 6.0 13.0 0.00 0.00 0.00 96 1007.7
20260509110057 74 208 0.0 6.0 0.00 0.00 0.00 97 1010.7
20260509104553 74 0 2.0 7.0 0.00 0.00 0.00 97 1011.0
20260509103103 74 265 9.0 15.0 0.00 0.00 0.00 97 1009.9
20260509101601 74 0.0 0.0 0.00 0.00 0.00 97 1010.3
20260509100052 74 0 0.0 1.0 0.00 0.00 0.00 97 1009.7
20260509094552 73 0 0.0 2.0 0.00 0.00 0.00 97 1009.9
20260509093054 74 0 0.0 0.0 0.00 0.00 0.00 96 1009.9
20260509091612 73 0 0.0 0.0 0.00 0.00 0.00 97 1009.8
20260509090049 73 0 0.0 0.0 0.00 0.00 0.00 96 1009.5
20260509084552 73 0 0.0 0.0 0.00 0.00 0.00 96 1009.7
20260509083056 72 0 0.0 0.0 0.00 0.00 0.00 96 1009.7